Location: Dillon
(41.1766°N, 107.0923°W)
Time: 13:10:20
(UTC+00:00)

SJ-7 - Pass Details

Date: 10 December 2022
Orbit: 549 x 592 km, 97.7° (Epoch: 05 February)

Event Time Altitude Azimuth Distance (km) Brightness Sun altitude
Rises 12:19:10 0° 22° (NNE) 2,734 8.0 -22.5°
Reaches altitude 10° 12:21:29 10° 33° (NNE) 1,839 7.2 -22.1°
Maximum altitude 12:25:04 32° 97° (E) 969 6.2 -21.4°
Drops below altitude 10° 12:28:39 10° 162° (SSE) 1,843 7.4 -20.8°
Sets 12:30:57 0° 172° (S) 2,742 8.2 -20.3°
